Time,TemperatureF,DewpointF,PressureIn,WindDirection,WindDirectionDegrees,WindSpeedMPH,WindSpeedGustMPH,Humidity,HourlyPrecipIn,Conditions,Clouds,dailyrainin,SoftwareType,DateUTC
2013-08-11 00:01:00,62.3,57.7,30.06,SE,132,1.0,1.0,85,0.00,,,0.00,WeatherCatV1.15B25,2013-08-11 07:01:00,
2013-08-11 00:06:00,62.3,57.7,30.07,ENE,71,0.0,1.0,85,0.00,,,0.00,WeatherCatV1.15B25,2013-08-11 07:06:00,
2013-08-11 00:11:00,62.3,58.1,30.06,ESE,105,1.0,1.0,86,0.00,,,0.00,WeatherCatV1.15B25,2013-08-11 07:11:00,
2013-08-11 00:16:00,62.4,58.2,30.06,ESE,104,0.0,0.0,86,0.00,,,0.00,WeatherCatV1.15B25,2013-08-11 07:16:00,
2013-08-11 00:21:00,62.4,58.2,30.06,SW,215,0.0,1.0,86,0.00,,,0.00,WeatherCatV1.15B25,2013-08-11 07:21:00,
2013-08-11 00:26:00,62.4,58.2,30.07,SW,224,3.0,4.0,86,0.00,,,0.00,WeatherCatV1.15B25,2013-08-11 07:26:00,
2013-08-11 00:31:00,62.4,58.2,30.07,WSW,239,4.0,5.0,86,0.00,,,0.00,WeatherCatV1.15B25,2013-08-11 07:31:00,
2013-08-11 00:36:00,62.1,57.9,30.07,South,169,2.0,4.0,86,0.00,,,0.00,WeatherCatV1.15B25,2013-08-11 07:36:00,
2013-08-11 00:41:00,61.9,57.7,30.08,SSW,193,3.0,4.0,86,0.00,,,0.00,WeatherCatV1.15B25,2013-08-11 07:41:00,
2013-08-11 00:46:00,61.7,57.5,30.07,SW,232,4.0,4.0,86,0.00,,,0.00,WeatherCatV1.15B25,2013-08-11 07:46:00,
2013-08-11 00:51:00,61.3,57.1,30.07,South,183,4.0,9.0,86,0.00,,,0.00,WeatherCatV1.15B25,2013-08-11 07:51:00,
2013-08-11 00:56:00,61.1,57.2,30.07,SW,233,1.0,5.0,87,0.00,,,0.00,WeatherCatV1.15B25,2013-08-11 07:56:00,
2013-08-11 01:01:00,60.9,57.0,30.07,SW,215,4.0,6.0,87,0.00,,,0.00,WeatherCatV1.15B25,2013-08-11 08:01:00,
2013-08-11 01:06:00,60.7,56.5,30.07,South,176,3.0,7.0,86,0.00,,,0.00,WeatherCatV1.15B25,2013-08-11 08:06:00,
2013-08-11 01:11:00,60.6,56.4,30.07,WNW,301,1.0,2.0,86,0.00,,,0.00,WeatherCatV1.15B25,2013-08-11 08:11:00,
2013-08-11 01:16:00,60.3,56.4,30.07,SSW,204,4.0,4.0,87,0.00,,,0.00,WeatherCatV1.15B25,2013-08-11 08:16:00,
2013-08-11 01:21:00,60.1,56.2,30.07,SSW,208,3.0,5.0,87,0.00,,,0.00,WeatherCatV1.15B25,2013-08-11 08:21:00,
2013-08-11 01:26:00,59.9,56.0,30.07,WSW,251,3.0,6.0,87,0.00,,,0.00,WeatherCatV1.15B25,2013-08-11 08:26:00,
2013-08-11 01:31:00,59.8,55.9,30.07,SSW,202,3.0,6.0,87,0.00,,,0.00,WeatherCatV1.15B25,2013-08-11 08:31:00,
2013-08-11 01:36:00,59.7,55.8,30.07,SSE,162,4.0,6.0,87,0.00,,,0.00,WeatherCatV1.15B25,2013-08-11 08:36:00,
2013-08-11 01:41:00,59.7,55.8,30.07,SSW,202,2.0,3.0,87,0.00,,,0.00,WeatherCatV1.15B25,2013-08-11 08:41:00,
2013-08-11 01:46:00,59.5,55.9,30.07,SSW,204,2.0,5.0,88,0.00,,,0.00,WeatherCatV1.15B25,2013-08-11 08:46:00,
2013-08-11 01:51:00,59.2,55.6,30.07,SW,222,3.0,4.0,88,0.00,,,0.00,WeatherCatV1.15B25,2013-08-11 08:51:00,
2013-08-11 01:56:00,59.1,55.5,30.08,SSE,167,3.0,4.0,88,0.00,,,0.00,WeatherCatV1.15B25,2013-08-11 08:56:00,
2013-08-11 02:01:00,59.0,55.4,30.08,SSE,153,2.0,4.0,88,0.00,,,0.00,WeatherCatV1.15B25,2013-08-11 09:01:00,
2013-08-11 02:06:00,58.9,55.3,30.08,SSE,152,1.0,2.0,88,0.00,,,0.00,WeatherCatV1.15B25,2013-08-11 09:06:00,
2013-08-11 02:11:00,58.8,55.6,30.08,SSW,210,1.0,1.0,89,0.00,,,0.00,WeatherCatV1.15B25,2013-08-11 09:11:00,
2013-08-11 02:16:00,58.8,55.6,30.08,SSW,204,1.0,3.0,89,0.00,,,0.00,WeatherCatV1.15B25,2013-08-11 09:16:00,
2013-08-11 02:21:00,58.8,55.6,30.08,SSE,156,1.0,3.0,89,0.00,,,0.00,WeatherCatV1.15B25,2013-08-11 09:21:00,
2013-08-11 02:26:00,58.9,55.7,30.08,SW,229,0.0,1.0,89,0.00,,,0.00,WeatherCatV1.15B25,2013-08-11 09:26:00,
2013-08-11 02:31:00,58.8,55.3,30.09,South,191,3.0,4.0,88,0.00,,,0.00,WeatherCatV1.15B25,2013-08-11 09:31:00,
2013-08-11 02:36:00,58.7,55.2,30.08,SSW,197,2.0,2.0,88,0.00,,,0.00,WeatherCatV1.15B25,2013-08-11 09:36:00,
2013-08-11 02:41:00,58.6,55.1,30.09,South,169,2.0,4.0,88,0.00,,,0.00,WeatherCatV1.15B25,2013-08-11 09:41:00,
2013-08-11 02:46:00,58.5,55.0,30.09,SW,219,3.0,4.0,88,0.00,,,0.00,WeatherCatV1.15B25,2013-08-11 09:46:00,
2013-08-11 02:51:00,58.4,54.9,30.09,SW,229,4.0,5.0,88,0.00,,,0.00,WeatherCatV1.15B25,2013-08-11 09:51:00,
2013-08-11 02:56:00,58.3,54.8,30.09,SSW,196,5.0,8.0,88,0.00,,,0.00,WeatherCatV1.15B25,2013-08-11 09:56:00,
2013-08-11 03:01:00,58.4,54.5,30.09,South,169,4.0,6.0,87,0.00,,,0.00,WeatherCatV1.15B25,2013-08-11 10:01:00,
2013-08-11 03:06:00,58.4,54.9,30.09,South,188,4.0,4.0,88,0.00,,,0.00,WeatherCatV1.15B25,2013-08-11 10:06:00,
2013-08-11 03:11:00,58.4,54.9,30.10,SW,222,3.0,5.0,88,0.00,,,0.00,WeatherCatV1.15B25,2013-08-11 10:11:00,
2013-08-11 03:16:00,58.4,54.5,30.09,SSE,166,3.0,7.0,87,0.00,,,0.00,WeatherCatV1.15B25,2013-08-11 10:16:00,
2013-08-11 03:21:00,58.5,55.0,30.09,SSW,194,4.0,4.0,88,0.00,,,0.00,WeatherCatV1.15B25,2013-08-11 10:21:00,
2013-08-11 03:26:00,58.6,54.7,30.09,SE,135,3.0,3.0,87,0.00,,,0.00,WeatherCatV1.15B25,2013-08-11 10:26:00,
2013-08-11 03:31:00,58.6,54.7,30.09,South,188,2.0,2.0,87,0.00,,,0.00,WeatherCatV1.15B25,2013-08-11 10:31:00,
2013-08-11 03:36:00,58.7,54.8,30.09,SSE,159,3.0,4.0,87,0.00,,,0.00,WeatherCatV1.15B25,2013-08-11 10:36:00,
2013-08-11 03:37:00,58.7,54.8,30.09,SSW,205,2.0,6.0,87,0.00,,,0.00,WeatherCatV1.15B25,2013-08-11 10:37:00,
2013-08-11 03:42:00,58.8,54.9,30.09,SSW,203,1.0,3.0,87,0.00,,,0.00,WeatherCatV1.15B25,2013-08-11 10:42:00,
2013-08-11 03:47:00,58.9,55.0,30.08,SW,227,1.0,2.0,87,0.00,,,0.00,WeatherCatV1.15B25,2013-08-11 10:47:00,
2013-08-11 03:52:00,58.8,54.9,30.09,SSW,210,2.0,2.0,87,0.00,,,0.00,WeatherCatV1.15B25,2013-08-11 10:52:00,
2013-08-11 03:57:00,58.6,54.7,30.08,South,191,1.0,2.0,87,0.00,,,0.00,WeatherCatV1.15B25,2013-08-11 10:57:00,
2013-08-11 04:02:00,58.5,54.6,30.09,SSE,150,3.0,5.0,87,0.00,,,0.00,WeatherCatV1.15B25,2013-08-11 11:02:00,
2013-08-11 04:07:00,58.4,54.5,30.09,SSW,211,1.0,2.0,87,0.00,,,0.00,WeatherCatV1.15B25,2013-08-11 11:07:00,
2013-08-11 04:12:00,58.4,54.9,30.09,SSE,149,1.0,2.0,88,0.00,,,0.00,WeatherCatV1.15B25,2013-08-11 11:12:00,
2013-08-11 04:17:00,58.3,54.8,30.09,SSW,198,3.0,4.0,88,0.00,,,0.00,WeatherCatV1.15B25,2013-08-11 11:17:00,
2013-08-11 04:22:00,58.0,54.5,30.09,SSW,198,2.0,4.0,88,0.00,,,0.00,WeatherCatV1.15B25,2013-08-11 11:22:00,
2013-08-11 04:27:00,57.8,54.3,30.09,SW,228,4.0,4.0,88,0.00,,,0.00,WeatherCatV1.15B25,2013-08-11 11:27:00,
2013-08-11 04:32:00,57.6,54.1,30.09,SSE,165,1.0,2.0,88,0.00,,,0.00,WeatherCatV1.15B25,2013-08-11 11:32:00,
2013-08-11 04:37:00,57.6,54.4,30.09,SW,233,1.0,1.0,89,0.00,,,0.00,WeatherCatV1.15B25,2013-08-11 11:37:00,
2013-08-11 04:42:00,57.6,54.4,30.09,SW,229,0.0,0.0,89,0.00,,,0.00,WeatherCatV1.15B25,2013-08-11 11:42:00,
2013-08-11 04:47:00,57.6,54.4,30.09,SW,229,0.0,0.0,89,0.00,,,0.00,WeatherCatV1.15B25,2013-08-11 11:47:00,
2013-08-11 04:52:00,57.6,54.7,30.09,SE,146,1.0,1.0,90,0.00,,,0.00,WeatherCatV1.15B25,2013-08-11 11:52:00,
2013-08-11 04:57:00,57.8,54.9,30.09,ESE,114,0.0,2.0,90,0.00,,,0.00,WeatherCatV1.15B25,2013-08-11 11:57:00,
2013-08-11 05:02:00,57.9,55.0,30.09,SE,134,0.0,1.0,90,0.00,,,0.00,WeatherCatV1.15B25,2013-08-11 12:02:00,
2013-08-11 05:07:00,58.1,55.2,30.09,SE,134,0.0,1.0,90,0.00,,,0.00,WeatherCatV1.15B25,2013-08-11 12:07:00,
2013-08-11 05:12:00,58.2,55.3,30.09,SE,135,0.0,2.0,90,0.00,,,0.00,WeatherCatV1.15B25,2013-08-11 12:12:00,
2013-08-11 05:17:00,58.3,55.4,30.09,SE,145,0.0,2.0,90,0.00,,,0.00,WeatherCatV1.15B25,2013-08-11 12:17:00,
2013-08-11 05:22:00,58.4,55.5,30.09,South,169,2.0,2.0,90,0.00,,,0.00,WeatherCatV1.15B25,2013-08-11 12:22:00,
2013-08-11 05:27:00,58.5,55.6,30.09,South,177,0.0,2.0,90,0.00,,,0.00,WeatherCatV1.15B25,2013-08-11 12:27:00,
2013-08-11 05:32:00,58.5,55.6,30.09,WSW,248,3.0,3.0,90,0.00,,,0.00,WeatherCatV1.15B25,2013-08-11 12:32:00,
2013-08-11 05:37:00,58.5,55.3,30.09,SW,222,2.0,3.0,89,0.00,,,0.00,WeatherCatV1.15B25,2013-08-11 12:37:00,
2013-08-11 05:42:00,58.4,55.2,30.10,SSW,211,3.0,3.0,89,0.00,,,0.00,WeatherCatV1.15B25,2013-08-11 12:42:00,
2013-08-11 05:47:00,58.4,55.2,30.10,SW,214,3.0,4.0,89,0.00,,,0.00,WeatherCatV1.15B25,2013-08-11 12:47:00,
2013-08-11 05:52:00,58.4,55.2,30.10,SSE,154,2.0,3.0,89,0.00,,,0.00,WeatherCatV1.15B25,2013-08-11 12:52:00,
2013-08-11 05:57:00,58.3,55.1,30.10,South,181,2.0,3.0,89,0.00,,,0.00,WeatherCatV1.15B25,2013-08-11 12:57:00,
2013-08-11 06:02:00,58.2,55.0,30.10,SSE,167,2.0,3.0,89,0.00,,,0.00,WeatherCatV1.15B25,2013-08-11 13:02:00,
2013-08-11 06:07:00,58.1,54.9,30.10,SSW,204,2.0,4.0,89,0.00,,,0.00,WeatherCatV1.15B25,2013-08-11 13:07:00,
2013-08-11 06:12:00,58.0,54.8,30.11,SSE,150,2.0,3.0,89,0.00,,,0.00,WeatherCatV1.15B25,2013-08-11 13:12:00,
2013-08-11 06:17:00,58.0,54.8,30.11,SW,219,1.0,4.0,89,0.00,,,0.00,WeatherCatV1.15B25,2013-08-11 13:17:00,
2013-08-11 06:22:00,58.1,54.9,30.11,SW,229,2.0,2.0,89,0.00,,,0.00,WeatherCatV1.15B25,2013-08-11 13:22:00,
2013-08-11 06:27:00,58.1,54.9,30.11,SE,146,1.0,2.0,89,0.00,,,0.00,WeatherCatV1.15B25,2013-08-11 13:27:00,
2013-08-11 06:32:00,58.3,55.1,30.10,SW,223,2.0,3.0,89,0.00,,,0.00,WeatherCatV1.15B25,2013-08-11 13:32:00,
2013-08-11 06:37:00,58.2,55.0,30.10,SSW,207,1.0,3.0,89,0.00,,,0.00,WeatherCatV1.15B25,2013-08-11 13:37:00,
2013-08-11 06:42:00,58.2,55.0,30.10,SSW,204,2.0,3.0,89,0.00,,,0.00,WeatherCatV1.15B25,2013-08-11 13:42:00,
2013-08-11 06:47:00,58.0,54.8,30.10,SSW,195,3.0,4.0,89,0.00,,,0.00,WeatherCatV1.15B25,2013-08-11 13:47:00,
2013-08-11 06:52:00,57.9,54.7,30.10,SSW,201,3.0,4.0,89,0.00,,,0.00,WeatherCatV1.15B25,2013-08-11 13:52:00,
2013-08-11 06:57:00,57.8,54.6,30.10,South,187,1.0,2.0,89,0.00,,,0.00,WeatherCatV1.15B25,2013-08-11 13:57:00,
2013-08-11 07:02:00,57.8,54.6,30.10,SSW,212,3.0,4.0,89,0.00,,,0.00,WeatherCatV1.15B25,2013-08-11 14:02:00,
2013-08-11 07:07:00,57.7,54.5,30.10,SSW,212,2.0,5.0,89,0.00,,,0.00,WeatherCatV1.15B25,2013-08-11 14:07:00,
2013-08-11 07:12:00,57.7,54.5,30.10,West,266,2.0,3.0,89,0.00,,,0.00,WeatherCatV1.15B25,2013-08-11 14:12:00,
2013-08-11 07:17:00,57.7,54.5,30.10,West,269,2.0,4.0,89,0.00,,,0.00,WeatherCatV1.15B25,2013-08-11 14:17:00,
2013-08-11 07:22:00,57.6,54.4,30.10,SW,227,0.0,1.0,89,0.00,,,0.00,WeatherCatV1.15B25,2013-08-11 14:22:00,
2013-08-11 07:27:00,57.8,54.6,30.10,SW,233,0.0,1.0,89,0.00,,,0.00,WeatherCatV1.15B25,2013-08-11 14:27:00,
2013-08-11 07:32:00,57.8,54.6,30.10,WSW,243,1.0,1.0,89,0.00,,,0.00,WeatherCatV1.15B25,2013-08-11 14:32:00,
2013-08-11 07:37:00,57.7,54.5,30.10,SSW,212,1.0,3.0,89,0.00,,,0.00,WeatherCatV1.15B25,2013-08-11 14:37:00,
2013-08-11 07:42:00,58.1,54.9,30.10,South,174,1.0,2.0,89,0.00,,,0.00,WeatherCatV1.15B25,2013-08-11 14:42:00,
2013-08-11 07:47:00,58.7,55.2,30.10,SE,133,3.0,4.0,88,0.00,,,0.00,WeatherCatV1.15B25,2013-08-11 14:47:00,
2013-08-11 07:52:00,58.8,54.9,30.10,SE,135,1.0,3.0,87,0.00,,,0.00,WeatherCatV1.15B25,2013-08-11 14:52:00,
2013-08-11 07:57:00,59.1,55.2,30.11,SSE,156,2.0,3.0,87,0.00,,,0.00,WeatherCatV1.15B25,2013-08-11 14:57:00,
2013-08-11 08:02:00,59.7,55.5,30.11,East,97,1.0,3.0,86,0.00,,,0.00,WeatherCatV1.15B25,2013-08-11 15:02:00,
2013-08-11 08:07:00,60.3,55.4,30.11,ESE,114,2.0,7.0,84,0.00,,,0.00,WeatherCatV1.15B25,2013-08-11 15:07:00,
2013-08-11 08:12:00,60.2,55.0,30.11,SSE,163,1.0,2.0,83,0.00,,,0.00,WeatherCatV1.15B25,2013-08-11 15:12:00,
2013-08-11 08:17:00,60.7,55.2,30.10,SSE,152,1.0,3.0,82,0.00,,,0.00,WeatherCatV1.15B25,2013-08-11 15:17:00,
2013-08-11 08:22:00,61.3,55.4,30.10,South,176,2.0,2.0,81,0.00,,,0.00,WeatherCatV1.15B25,2013-08-11 15:22:00,
2013-08-11 08:27:00,61.6,55.4,30.10,SW,221,2.0,5.0,80,0.00,,,0.00,WeatherCatV1.15B25,2013-08-11 15:27:00,
2013-08-11 08:32:00,61.1,54.9,30.11,South,172,2.0,8.0,80,0.00,,,0.00,WeatherCatV1.15B25,2013-08-11 15:32:00,
2013-08-11 08:37:00,60.9,54.7,30.11,South,172,3.0,5.0,80,0.00,,,0.00,WeatherCatV1.15B25,2013-08-11 15:37:00,
2013-08-11 08:42:00,61.2,55.3,30.11,SE,143,4.0,8.0,81,0.00,,,0.00,WeatherCatV1.15B25,2013-08-11 15:42:00,
2013-08-11 08:47:00,61.1,54.9,30.11,SSW,203,3.0,4.0,80,0.00,,,0.00,WeatherCatV1.15B25,2013-08-11 15:47:00,
2013-08-11 08:52:00,61.1,54.9,30.11,SW,229,1.0,7.0,80,0.00,,,0.00,WeatherCatV1.15B25,2013-08-11 15:52:00,
2013-08-11 08:57:00,61.1,54.9,30.11,SE,144,1.0,4.0,80,0.00,,,0.00,WeatherCatV1.15B25,2013-08-11 15:57:00,
2013-08-11 09:02:00,61.0,54.8,30.11,SSW,201,3.0,8.0,80,0.00,,,0.00,WeatherCatV1.15B25,2013-08-11 16:02:00,
2013-08-11 09:07:00,61.1,55.2,30.11,NNW,339,1.0,8.0,81,0.00,,,0.00,WeatherCatV1.15B25,2013-08-11 16:07:00,
2013-08-11 09:12:00,61.4,55.2,30.11,South,172,2.0,5.0,80,0.00,,,0.00,WeatherCatV1.15B25,2013-08-11 16:12:00,
2013-08-11 09:17:00,61.6,55.4,30.11,WSW,242,3.0,5.0,80,0.00,,,0.00,WeatherCatV1.15B25,2013-08-11 16:17:00,
2013-08-11 09:22:00,62.2,55.9,30.11,SSW,202,1.0,1.0,80,0.00,,,0.00,WeatherCatV1.15B25,2013-08-11 16:22:00,
2013-08-11 09:27:00,63.8,56.4,30.11,West,261,0.0,2.0,77,0.00,,,0.00,WeatherCatV1.15B25,2013-08-11 16:27:00,
2013-08-11 09:32:00,64.4,56.3,30.10,SE,146,3.0,6.0,75,0.00,,,0.00,WeatherCatV1.15B25,2013-08-11 16:32:00,
2013-08-11 09:37:00,63.9,55.8,30.11,WSW,255,2.0,5.0,75,0.00,,,0.00,WeatherCatV1.15B25,2013-08-11 16:37:00,
2013-08-11 09:42:00,63.6,55.9,30.11,West,263,1.0,2.0,76,0.00,,,0.00,WeatherCatV1.15B25,2013-08-11 16:42:00,
2013-08-11 09:47:00,63.5,56.2,30.11,WSW,245,3.0,4.0,77,0.00,,,0.00,WeatherCatV1.15B25,2013-08-11 16:47:00,
2013-08-11 09:52:00,63.8,56.4,30.11,South,184,1.0,5.0,77,0.00,,,0.00,WeatherCatV1.15B25,2013-08-11 16:52:00,
2013-08-11 09:57:00,63.9,56.5,30.11,South,188,3.0,5.0,77,0.00,,,0.00,WeatherCatV1.15B25,2013-08-11 16:57:00,
2013-08-11 10:02:00,63.8,56.1,30.11,South,184,4.0,6.0,76,0.00,,,0.00,WeatherCatV1.15B25,2013-08-11 17:02:00,
2013-08-11 10:07:00,64.0,56.6,30.11,SE,139,1.0,1.0,77,0.00,,,0.00,WeatherCatV1.15B25,2013-08-11 17:07:00,
2013-08-11 10:12:00,64.3,56.6,30.11,WNW,285,1.0,2.0,76,0.00,,,0.00,WeatherCatV1.15B25,2013-08-11 17:12:00,
2013-08-11 10:17:00,64.7,57.0,30.11,SE,133,1.0,4.0,76,0.00,,,0.00,WeatherCatV1.15B25,2013-08-11 17:17:00,
2013-08-11 10:22:00,64.9,56.8,30.11,WSW,257,1.0,1.0,75,0.00,,,0.00,WeatherCatV1.15B25,2013-08-11 17:22:00,
2013-08-11 10:27:00,64.9,56.8,30.11,SW,214,4.0,4.0,75,0.00,,,0.00,WeatherCatV1.15B25,2013-08-11 17:27:00,
2013-08-11 10:32:00,64.3,56.6,30.11,South,184,6.0,9.0,76,0.00,,,0.00,WeatherCatV1.15B25,2013-08-11 17:32:00,
2013-08-11 10:37:00,64.1,56.7,30.11,South,180,3.0,5.0,77,0.00,,,0.00,WeatherCatV1.15B25,2013-08-11 17:37:00,
2013-08-11 10:42:00,64.1,56.7,30.11,SSW,195,3.0,6.0,77,0.00,,,0.00,WeatherCatV1.15B25,2013-08-11 17:42:00,
2013-08-11 10:47:00,64.1,56.7,30.11,WSW,249,6.0,7.0,77,0.00,,,0.00,WeatherCatV1.15B25,2013-08-11 17:47:00,
2013-08-11 10:52:00,64.2,56.8,30.11,SSW,201,3.0,4.0,77,0.00,,,0.00,WeatherCatV1.15B25,2013-08-11 17:52:00,
2013-08-11 10:57:00,64.3,56.9,30.11,SSW,211,3.0,5.0,77,0.00,,,0.00,WeatherCatV1.15B25,2013-08-11 17:57:00,
2013-08-11 11:02:00,64.2,56.8,30.11,SSW,194,2.0,9.0,77,0.00,,,0.00,WeatherCatV1.15B25,2013-08-11 18:02:00,
2013-08-11 11:07:00,64.4,57.0,30.11,SW,229,2.0,3.0,77,0.00,,,0.00,WeatherCatV1.15B25,2013-08-11 18:07:00,
2013-08-11 11:12:00,64.9,57.1,30.11,SSE,167,5.0,6.0,76,0.00,,,0.00,WeatherCatV1.15B25,2013-08-11 18:12:00,
2013-08-11 11:17:00,65.2,57.1,30.11,SSE,156,3.0,6.0,75,0.00,,,0.00,WeatherCatV1.15B25,2013-08-11 18:17:00,
2013-08-11 11:22:00,64.9,57.1,30.11,South,186,4.0,5.0,76,0.00,,,0.00,WeatherCatV1.15B25,2013-08-11 18:22:00,
2013-08-11 11:27:00,64.9,57.1,30.11,West,277,2.0,7.0,76,0.00,,,0.00,WeatherCatV1.15B25,2013-08-11 18:27:00,
2013-08-11 11:32:00,65.0,57.6,30.10,SW,236,4.0,7.0,77,0.00,,,0.00,WeatherCatV1.15B25,2013-08-11 18:32:00,
2013-08-11 11:37:00,65.0,57.6,30.10,SW,226,6.0,6.0,77,0.00,,,0.00,WeatherCatV1.15B25,2013-08-11 18:37:00,
2013-08-11 11:42:00,64.9,57.5,30.10,WSW,249,6.0,7.0,77,0.00,,,0.00,WeatherCatV1.15B25,2013-08-11 18:42:00,
2013-08-11 11:47:00,65.2,57.8,30.10,SW,235,2.0,4.0,77,0.00,,,0.00,WeatherCatV1.15B25,2013-08-11 18:47:00,
2013-08-11 11:52:00,65.2,57.8,30.11,SW,236,5.0,6.0,77,0.00,,,0.00,WeatherCatV1.15B25,2013-08-11 18:52:00,
2013-08-11 11:57:00,65.3,57.5,30.11,SSE,162,5.0,7.0,76,0.00,,,0.00,WeatherCatV1.15B25,2013-08-11 18:57:00,
2013-08-11 12:02:00,65.1,57.3,30.11,SSE,155,6.0,6.0,76,0.00,,,0.00,WeatherCatV1.15B25,2013-08-11 19:02:00,
2013-08-11 12:07:00,65.0,57.2,30.11,SSW,195,3.0,4.0,76,0.00,,,0.00,WeatherCatV1.15B25,2013-08-11 19:07:00,
2013-08-11 12:12:00,65.4,57.6,30.11,SSE,166,1.0,1.0,76,0.00,,,0.00,WeatherCatV1.15B25,2013-08-11 19:12:00,
2013-08-11 12:17:00,65.6,57.8,30.11,SSW,197,3.0,7.0,76,0.00,,,0.00,WeatherCatV1.15B25,2013-08-11 19:17:00,
2013-08-11 12:22:00,66.4,58.6,30.11,SW,225,3.0,8.0,76,0.00,,,0.00,WeatherCatV1.15B25,2013-08-11 19:22:00,
2013-08-11 12:27:00,66.6,58.4,30.11,WNW,302,4.0,4.0,75,0.00,,,0.00,WeatherCatV1.15B25,2013-08-11 19:27:00,
2013-08-11 12:32:00,66.4,58.2,30.10,West,271,5.0,5.0,75,0.00,,,0.00,WeatherCatV1.15B25,2013-08-11 19:32:00,
2013-08-11 12:37:00,66.5,57.6,30.10,SW,224,4.0,5.0,73,0.00,,,0.00,WeatherCatV1.15B25,2013-08-11 19:37:00,
2013-08-11 12:42:00,67.5,58.1,30.10,WSW,239,5.0,7.0,72,0.00,,,0.00,WeatherCatV1.15B25,2013-08-11 19:42:00,
2013-08-11 12:47:00,67.0,57.7,30.10,North,6,3.0,6.0,72,0.00,,,0.00,WeatherCatV1.15B25,2013-08-11 19:47:00,
2013-08-11 12:52:00,67.4,58.0,30.10,WNW,298,5.0,5.0,72,0.00,,,0.00,WeatherCatV1.15B25,2013-08-11 19:52:00,
2013-08-11 12:57:00,67.5,57.8,30.10,West,264,4.0,7.0,71,0.00,,,0.00,WeatherCatV1.15B25,2013-08-11 19:57:00,
2013-08-11 13:02:00,67.8,57.6,30.09,SSE,168,7.0,8.0,70,0.00,,,0.00,WeatherCatV1.15B25,2013-08-11 20:02:00,
2013-08-11 13:07:00,68.5,58.3,30.09,WNW,298,6.0,11.0,70,0.00,,,0.00,WeatherCatV1.15B25,2013-08-11 20:07:00,
2013-08-11 13:12:00,68.6,57.6,30.10,WSW,255,1.0,5.0,68,0.00,,,0.00,WeatherCatV1.15B25,2013-08-11 20:12:00,
2013-08-11 13:17:00,69.1,58.1,30.10,SSW,212,7.0,8.0,68,0.00,,,0.00,WeatherCatV1.15B25,2013-08-11 20:17:00,
2013-08-11 13:22:00,69.4,58.0,30.10,NW,321,2.0,5.0,67,0.00,,,0.00,WeatherCatV1.15B25,2013-08-11 20:22:00,
2013-08-11 13:27:00,69.6,57.7,30.10,SSW,197,6.0,8.0,66,0.00,,,0.00,WeatherCatV1.15B25,2013-08-11 20:27:00,
2013-08-11 13:32:00,69.6,57.7,30.10,SW,215,7.0,13.0,66,0.00,,,0.00,WeatherCatV1.15B25,2013-08-11 20:32:00,
2013-08-11 13:37:00,69.6,57.7,30.09,NNW,340,1.0,3.0,66,0.00,,,0.00,WeatherCatV1.15B25,2013-08-11 20:37:00,
2013-08-11 13:42:00,70.0,57.7,30.09,SW,215,7.0,7.0,65,0.00,,,0.00,WeatherCatV1.15B25,2013-08-11 20:42:00,
2013-08-11 13:47:00,70.9,58.5,30.09,SE,132,2.0,2.0,65,0.00,,,0.00,WeatherCatV1.15B25,2013-08-11 20:47:00,
2013-08-11 13:52:00,72.0,58.3,30.09,SSW,204,1.0,3.0,62,0.00,,,0.00,WeatherCatV1.15B25,2013-08-11 20:52:00,
2013-08-11 13:57:00,73.0,58.3,30.09,West,266,5.0,10.0,60,0.00,,,0.00,WeatherCatV1.15B25,2013-08-11 20:57:00,
2013-08-11 14:02:00,72.2,58.0,30.08,SW,226,3.0,5.0,61,0.00,,,0.00,WeatherCatV1.15B25,2013-08-11 21:02:00,
2013-08-11 14:07:00,71.7,58.0,30.09,WSW,255,6.0,12.0,62,0.00,,,0.00,WeatherCatV1.15B25,2013-08-11 21:07:00,
2013-08-11 14:12:00,70.9,58.5,30.08,WNW,297,6.0,6.0,65,0.00,,,0.00,WeatherCatV1.15B25,2013-08-11 21:12:00,
2013-08-11 14:17:00,71.5,58.2,30.09,SW,216,5.0,8.0,63,0.00,,,0.00,WeatherCatV1.15B25,2013-08-11 21:17:00,
2013-08-11 14:22:00,72.2,58.0,30.09,WSW,238,6.0,8.0,61,0.00,,,0.00,WeatherCatV1.15B25,2013-08-11 21:22:00,
2013-08-11 14:27:00,72.2,58.9,30.09,SSE,150,0.0,1.0,63,0.00,,,0.00,WeatherCatV1.15B25,2013-08-11 21:27:00,
2013-08-11 14:32:00,72.7,58.5,30.08,SSE,165,3.0,8.0,61,0.00,,,0.00,WeatherCatV1.15B25,2013-08-11 21:32:00,
2013-08-11 14:37:00,73.0,57.8,30.08,SW,228,7.0,13.0,59,0.00,,,0.00,WeatherCatV1.15B25,2013-08-11 21:37:00,
2013-08-11 14:42:00,72.6,57.9,30.08,SSW,201,6.0,10.0,60,0.00,,,0.00,WeatherCatV1.15B25,2013-08-11 21:42:00,
2013-08-11 14:47:00,72.8,58.6,30.08,SW,215,0.0,6.0,61,0.00,,,0.00,WeatherCatV1.15B25,2013-08-11 21:47:00,
2013-08-11 14:52:00,72.8,58.6,30.09,South,172,3.0,6.0,61,0.00,,,0.00,WeatherCatV1.15B25,2013-08-11 21:52:00,
2013-08-11 14:57:00,73.4,58.2,30.08,NW,323,5.0,8.0,59,0.00,,,0.00,WeatherCatV1.15B25,2013-08-11 21:57:00,
2013-08-11 15:02:00,72.7,58.0,30.08,NW,307,5.0,8.0,60,0.00,,,0.00,WeatherCatV1.15B25,2013-08-11 22:02:00,
2013-08-11 15:07:00,72.9,58.6,30.08,West,278,3.0,8.0,61,0.00,,,0.00,WeatherCatV1.15B25,2013-08-11 22:07:00,
2013-08-11 15:12:00,72.4,57.7,30.08,SE,139,1.0,6.0,60,0.00,,,0.00,WeatherCatV1.15B25,2013-08-11 22:12:00,
2013-08-11 15:17:00,72.3,58.5,30.08,SW,218,2.0,8.0,62,0.00,,,0.00,WeatherCatV1.15B25,2013-08-11 22:17:00,
2013-08-11 15:22:00,72.6,57.9,30.08,WSW,251,7.0,12.0,60,0.00,,,0.00,WeatherCatV1.15B25,2013-08-11 22:22:00,
2013-08-11 15:27:00,72.6,58.4,30.07,WNW,288,5.0,13.0,61,0.00,,,0.00,WeatherCatV1.15B25,2013-08-11 22:27:00,
2013-08-11 15:32:00,72.7,58.0,30.07,SW,231,4.0,9.0,60,0.00,,,0.00,WeatherCatV1.15B25,2013-08-11 22:32:00,
2013-08-11 15:37:00,72.9,58.2,30.07,NW,311,6.0,13.0,60,0.00,,,0.00,WeatherCatV1.15B25,2013-08-11 22:37:00,
2013-08-11 15:42:00,73.2,58.5,30.07,SSW,205,5.0,7.0,60,0.00,,,0.00,WeatherCatV1.15B25,2013-08-11 22:42:00,
2013-08-11 15:47:00,72.3,57.6,30.07,WNW,290,8.0,8.0,60,0.00,,,0.00,WeatherCatV1.15B25,2013-08-11 22:47:00,
2013-08-11 15:52:00,72.3,58.5,30.06,WNW,283,1.0,6.0,62,0.00,,,0.00,WeatherCatV1.15B25,2013-08-11 22:52:00,
2013-08-11 15:57:00,72.4,58.2,30.06,West,269,3.0,11.0,61,0.00,,,0.00,WeatherCatV1.15B25,2013-08-11 22:57:00,
2013-08-11 16:02:00,71.8,57.6,30.07,South,179,3.0,9.0,61,0.00,,,0.00,WeatherCatV1.15B25,2013-08-11 23:02:00,
2013-08-11 16:07:00,72.2,58.0,30.06,NW,308,1.0,3.0,61,0.00,,,0.00,WeatherCatV1.15B25,2013-08-11 23:07:00,
2013-08-11 16:12:00,72.6,57.9,30.06,NW,305,6.0,9.0,60,0.00,,,0.00,WeatherCatV1.15B25,2013-08-11 23:12:00,
2013-08-11 16:17:00,72.6,57.9,30.06,WSW,241,4.0,8.0,60,0.00,,,0.00,WeatherCatV1.15B25,2013-08-11 23:17:00,
2013-08-11 16:22:00,73.4,58.7,30.05,WSW,253,4.0,4.0,60,0.00,,,0.00,WeatherCatV1.15B25,2013-08-11 23:22:00,
2013-08-11 16:27:00,73.3,57.6,30.05,SSW,201,5.0,10.0,58,0.00,,,0.00,WeatherCatV1.15B25,2013-08-11 23:27:00,
2013-08-11 16:32:00,73.4,57.7,30.05,WNW,282,2.0,8.0,58,0.00,,,0.00,WeatherCatV1.15B25,2013-08-11 23:32:00,
2013-08-11 16:37:00,73.3,58.1,30.05,SW,215,3.0,6.0,59,0.00,,,0.00,WeatherCatV1.15B25,2013-08-11 23:37:00,
2013-08-11 16:42:00,73.2,57.5,30.05,East,96,3.0,9.0,58,0.00,,,0.00,WeatherCatV1.15B25,2013-08-11 23:42:00,
2013-08-11 16:47:00,72.8,57.6,30.06,South,190,4.0,9.0,59,0.00,,,0.00,WeatherCatV1.15B25,2013-08-11 23:47:00,
2013-08-11 16:52:00,73.7,58.5,30.05,WSW,252,6.0,9.0,59,0.00,,,0.00,WeatherCatV1.15B25,2013-08-11 23:52:00,
2013-08-11 16:57:00,73.7,58.5,30.06,West,276,7.0,9.0,59,0.00,,,0.00,WeatherCatV1.15B25,2013-08-11 23:57:00,
2013-08-11 17:02:00,73.6,58.4,30.06,South,181,6.0,6.0,59,0.00,,,0.00,WeatherCatV1.15B25,2013-08-12 00:02:00,
2013-08-11 17:08:00,74.0,58.3,30.06,West,261,4.0,7.0,58,0.00,,,0.00,WeatherCatV1.15B25,2013-08-12 00:08:00,
2013-08-11 17:13:00,73.2,57.5,30.06,WSW,250,3.0,6.0,58,0.00,,,0.00,WeatherCatV1.15B25,2013-08-12 00:13:00,
2013-08-11 17:18:00,73.5,57.8,30.06,South,171,2.0,4.0,58,0.00,,,0.00,WeatherCatV1.15B25,2013-08-12 00:18:00,
2013-08-11 17:23:00,73.1,58.4,30.06,WNW,294,3.0,4.0,60,0.00,,,0.00,WeatherCatV1.15B25,2013-08-12 00:23:00,
2013-08-11 17:28:00,72.6,57.9,30.05,NW,314,1.0,5.0,60,0.00,,,0.00,WeatherCatV1.15B25,2013-08-12 00:28:00,
2013-08-11 17:33:00,72.8,58.1,30.06,SW,229,4.0,9.0,60,0.00,,,0.00,WeatherCatV1.15B25,2013-08-12 00:33:00,
2013-08-11 17:38:00,72.6,57.9,30.06,South,172,3.0,6.0,60,0.00,,,0.00,WeatherCatV1.15B25,2013-08-12 00:38:00,
2013-08-11 17:43:00,72.4,58.2,30.05,WSW,240,1.0,5.0,61,0.00,,,0.00,WeatherCatV1.15B25,2013-08-12 00:43:00,
2013-08-11 17:48:00,72.3,57.6,30.05,WNW,286,5.0,6.0,60,0.00,,,0.00,WeatherCatV1.15B25,2013-08-12 00:48:00,
2013-08-11 17:53:00,72.1,57.9,30.05,WNW,283,2.0,5.0,61,0.00,,,0.00,WeatherCatV1.15B25,2013-08-12 00:53:00,
2013-08-11 17:58:00,72.2,57.5,30.05,WNW,288,4.0,5.0,60,0.00,,,0.00,WeatherCatV1.15B25,2013-08-12 00:58:00,
2013-08-11 18:03:00,72.1,57.4,30.05,West,260,2.0,5.0,60,0.00,,,0.00,WeatherCatV1.15B25,2013-08-12 01:03:00,
2013-08-11 18:08:00,72.0,57.8,30.05,WNW,284,3.0,5.0,61,0.00,,,0.00,WeatherCatV1.15B25,2013-08-12 01:08:00,
2013-08-11 18:13:00,72.4,58.2,30.04,SSW,205,2.0,3.0,61,0.00,,,0.00,WeatherCatV1.15B25,2013-08-12 01:13:00,
2013-08-11 18:18:00,72.8,57.6,30.04,SW,215,4.0,7.0,59,0.00,,,0.00,WeatherCatV1.15B25,2013-08-12 01:18:00,
2013-08-11 18:23:00,73.1,57.4,30.04,SSW,195,1.0,4.0,58,0.00,,,0.00,WeatherCatV1.15B25,2013-08-12 01:23:00,
2013-08-11 18:28:00,72.9,57.7,30.04,SW,219,2.0,7.0,59,0.00,,,0.00,WeatherCatV1.15B25,2013-08-12 01:28:00,
2013-08-11 18:33:00,73.3,58.1,30.04,WSW,242,1.0,3.0,59,0.00,,,0.00,WeatherCatV1.15B25,2013-08-12 01:33:00,
2013-08-11 18:38:00,73.8,58.1,30.04,SE,139,3.0,3.0,58,0.00,,,0.00,WeatherCatV1.15B25,2013-08-12 01:38:00,
2013-08-11 18:43:00,74.2,58.0,30.04,East,99,0.0,1.0,57,0.00,,,0.00,WeatherCatV1.15B25,2013-08-12 01:43:00,
2013-08-11 18:48:00,75.3,58.5,30.04,South,174,1.0,2.0,56,0.00,,,0.00,WeatherCatV1.15B25,2013-08-12 01:48:00,
2013-08-11 18:53:00,75.9,58.6,30.04,SSE,155,4.0,5.0,55,0.00,,,0.00,WeatherCatV1.15B25,2013-08-12 01:53:00,
2013-08-11 18:58:00,75.3,58.5,30.04,SSW,210,4.0,5.0,56,0.00,,,0.00,WeatherCatV1.15B25,2013-08-12 01:58:00,
2013-08-11 19:03:00,74.0,58.3,30.04,SW,221,0.0,7.0,58,0.00,,,0.00,WeatherCatV1.15B25,2013-08-12 02:03:00,
2013-08-11 19:08:00,73.6,58.4,30.04,West,271,2.0,5.0,59,0.00,,,0.00,WeatherCatV1.15B25,2013-08-12 02:08:00,
2013-08-11 19:13:00,72.9,58.2,30.04,SSW,198,3.0,6.0,60,0.00,,,0.00,WeatherCatV1.15B25,2013-08-12 02:13:00,
2013-08-11 19:18:00,72.4,58.6,30.04,West,278,1.0,6.0,62,0.00,,,0.00,WeatherCatV1.15B25,2013-08-12 02:18:00,
2013-08-11 19:23:00,72.3,58.1,30.04,NW,311,4.0,4.0,61,0.00,,,0.00,WeatherCatV1.15B25,2013-08-12 02:23:00,
2013-08-11 19:28:00,72.1,58.3,30.04,West,269,1.0,1.0,62,0.00,,,0.00,WeatherCatV1.15B25,2013-08-12 02:28:00,
2013-08-11 19:33:00,72.1,58.3,30.04,WSW,256,0.0,1.0,62,0.00,,,0.00,WeatherCatV1.15B25,2013-08-12 02:33:00,
2013-08-11 19:38:00,72.4,58.6,30.04,West,273,1.0,4.0,62,0.00,,,0.00,WeatherCatV1.15B25,2013-08-12 02:38:00,
2013-08-11 19:43:00,72.0,58.7,30.04,West,281,1.0,2.0,63,0.00,,,0.00,WeatherCatV1.15B25,2013-08-12 02:43:00,
2013-08-11 19:48:00,72.0,58.7,30.04,SW,221,3.0,3.0,63,0.00,,,0.00,WeatherCatV1.15B25,2013-08-12 02:48:00,
2013-08-11 19:53:00,71.9,58.6,30.05,West,276,1.0,1.0,63,0.00,,,0.00,WeatherCatV1.15B25,2013-08-12 02:53:00,
2013-08-11 19:58:00,71.7,58.4,30.05,SSW,204,2.0,2.0,63,0.00,,,0.00,WeatherCatV1.15B25,2013-08-12 02:58:00,
2013-08-11 20:03:00,71.5,58.7,30.05,SSW,208,1.0,2.0,64,0.00,,,0.00,WeatherCatV1.15B25,2013-08-12 03:03:00,
2013-08-11 20:08:00,71.4,58.1,30.05,SW,229,2.0,3.0,63,0.00,,,0.00,WeatherCatV1.15B25,2013-08-12 03:08:00,
2013-08-11 20:13:00,71.2,58.4,30.05,SW,215,2.0,3.0,64,0.00,,,0.00,WeatherCatV1.15B25,2013-08-12 03:13:00,
2013-08-11 20:18:00,71.2,58.4,30.05,WSW,248,3.0,3.0,64,0.00,,,0.00,WeatherCatV1.15B25,2013-08-12 03:18:00,
2013-08-11 20:23:00,71.7,58.9,30.05,WSW,245,2.0,2.0,64,0.00,,,0.00,WeatherCatV1.15B25,2013-08-12 03:23:00,
2013-08-11 20:28:00,71.6,58.8,30.05,SSW,210,1.0,1.0,64,0.00,,,0.00,WeatherCatV1.15B25,2013-08-12 03:28:00,
2013-08-11 20:33:00,71.3,58.5,30.05,SSW,204,1.0,2.0,64,0.00,,,0.00,WeatherCatV1.15B25,2013-08-12 03:33:00,
2013-08-11 20:38:00,71.1,58.7,30.05,SW,229,2.0,3.0,65,0.00,,,0.00,WeatherCatV1.15B25,2013-08-12 03:38:00,
2013-08-11 20:43:00,71.0,58.6,30.05,SW,229,0.0,1.0,65,0.00,,,0.00,WeatherCatV1.15B25,2013-08-12 03:43:00,
2013-08-11 20:48:00,70.9,58.5,30.05,SW,215,1.0,1.0,65,0.00,,,0.00,WeatherCatV1.15B25,2013-08-12 03:48:00,
2013-08-11 20:53:00,70.9,58.5,30.05,South,188,0.0,2.0,65,0.00,,,0.00,WeatherCatV1.15B25,2013-08-12 03:53:00,
2013-08-11 20:58:00,70.9,59.0,30.05,South,188,0.0,0.0,66,0.00,,,0.00,WeatherCatV1.15B25,2013-08-12 03:58:00,
2013-08-11 21:01:00,70.9,59.0,30.05,South,188,0.0,0.0,66,0.00,,,0.00,WeatherCatV1.15B25,2013-08-12 04:01:00,
2013-08-11 21:06:00,70.7,59.2,30.05,South,188,0.0,1.0,67,0.00,,,0.00,WeatherCatV1.15B25,2013-08-12 04:06:00,
2013-08-11 21:11:00,70.4,59.3,30.05,ESE,121,1.0,1.0,68,0.00,,,0.00,WeatherCatV1.15B25,2013-08-12 04:11:00,
2013-08-11 21:16:00,70.1,59.4,30.05,ESE,115,0.0,1.0,69,0.00,,,0.00,WeatherCatV1.15B25,2013-08-12 04:16:00,
2013-08-11 21:21:00,69.9,59.3,30.05,ESE,115,0.0,1.0,69,0.00,,,0.00,WeatherCatV1.15B25,2013-08-12 04:21:00,
2013-08-11 21:26:00,69.8,59.2,30.05,East,98,1.0,1.0,69,0.00,,,0.00,WeatherCatV1.15B25,2013-08-12 04:26:00,
2013-08-11 21:31:00,69.6,59.4,30.05,ENE,74,1.0,1.0,70,0.00,,,0.00,WeatherCatV1.15B25,2013-08-12 04:31:00,
2013-08-11 21:36:00,69.5,59.3,30.05,ENE,73,1.0,2.0,70,0.00,,,0.00,WeatherCatV1.15B25,2013-08-12 04:36:00,
2013-08-11 21:41:00,69.4,59.2,30.05,East,92,0.0,1.0,70,0.00,,,0.00,WeatherCatV1.15B25,2013-08-12 04:41:00,
2013-08-11 21:46:00,69.5,59.7,30.05,WNW,283,2.0,3.0,71,0.00,,,0.00,WeatherCatV1.15B25,2013-08-12 04:46:00,
2013-08-11 21:51:00,69.3,59.5,30.05,WNW,295,1.0,1.0,71,0.00,,,0.00,WeatherCatV1.15B25,2013-08-12 04:51:00,
2013-08-11 21:56:00,69.3,59.5,30.05,WNW,297,0.0,0.0,71,0.00,,,0.00,WeatherCatV1.15B25,2013-08-12 04:56:00,
2013-08-11 22:01:00,69.3,59.5,30.05,WNW,295,1.0,1.0,71,0.00,,,0.00,WeatherCatV1.15B25,2013-08-12 05:01:00,
2013-08-11 22:06:00,69.1,59.7,30.05,WNW,302,3.0,3.0,72,0.00,,,0.00,WeatherCatV1.15B25,2013-08-12 05:06:00,
2013-08-11 22:11:00,68.9,59.5,30.06,West,270,2.0,4.0,72,0.00,,,0.00,WeatherCatV1.15B25,2013-08-12 05:11:00,
2013-08-11 22:16:00,68.6,60.0,30.06,NW,308,1.0,3.0,74,0.00,,,0.00,WeatherCatV1.15B25,2013-08-12 05:16:00,
2013-08-11 22:21:00,68.4,59.8,30.06,NW,310,0.0,2.0,74,0.00,,,0.00,WeatherCatV1.15B25,2013-08-12 05:21:00,
2013-08-11 22:26:00,68.1,59.9,30.06,WNW,285,1.0,3.0,75,0.00,,,0.00,WeatherCatV1.15B25,2013-08-12 05:26:00,
2013-08-11 22:31:00,67.7,59.9,30.06,WNW,300,0.0,1.0,76,0.00,,,0.00,WeatherCatV1.15B25,2013-08-12 05:31:00,
2013-08-11 22:36:00,67.5,59.7,30.06,West,267,1.0,1.0,76,0.00,,,0.00,WeatherCatV1.15B25,2013-08-12 05:36:00,
2013-08-11 22:41:00,67.2,59.4,30.06,WNW,291,3.0,4.0,76,0.00,,,0.00,WeatherCatV1.15B25,2013-08-12 05:41:00,
2013-08-11 22:46:00,66.8,59.3,30.06,NW,314,0.0,2.0,77,0.00,,,0.00,WeatherCatV1.15B25,2013-08-12 05:46:00,
2013-08-11 22:51:00,66.6,59.2,30.06,West,277,0.0,0.0,77,0.00,,,0.00,WeatherCatV1.15B25,2013-08-12 05:51:00,
2013-08-11 22:56:00,66.3,59.2,30.06,WNW,284,0.0,0.0,78,0.00,,,0.00,WeatherCatV1.15B25,2013-08-12 05:56:00,
2013-08-11 23:01:00,66.0,59.3,30.06,WSW,255,0.0,1.0,79,0.00,,,0.00,WeatherCatV1.15B25,2013-08-12 06:01:00,
2013-08-11 23:06:00,65.6,59.3,30.06,WSW,243,0.0,1.0,80,0.00,,,0.00,WeatherCatV1.15B25,2013-08-12 06:06:00,
2013-08-11 23:11:00,65.3,59.0,30.06,SW,232,1.0,2.0,80,0.00,,,0.00,WeatherCatV1.15B25,2013-08-12 06:11:00,
2013-08-11 23:16:00,65.5,59.2,30.06,West,259,1.0,1.0,80,0.00,,,0.00,WeatherCatV1.15B25,2013-08-12 06:16:00,
2013-08-11 23:21:00,64.9,58.9,30.06,WSW,252,0.0,1.0,81,0.00,,,0.00,WeatherCatV1.15B25,2013-08-12 06:21:00,
2013-08-11 23:26:00,64.4,58.4,30.06,WNW,300,2.0,3.0,81,0.00,,,0.00,WeatherCatV1.15B25,2013-08-12 06:26:00,
2013-08-11 23:31:00,63.9,57.9,30.07,West,270,2.0,5.0,81,0.00,,,0.00,WeatherCatV1.15B25,2013-08-12 06:31:00,
2013-08-11 23:36:00,63.4,57.8,30.06,WNW,291,1.0,2.0,82,0.00,,,0.00,WeatherCatV1.15B25,2013-08-12 06:36:00,
2013-08-11 23:41:00,62.9,57.3,30.06,WNW,291,1.0,3.0,82,0.00,,,0.00,WeatherCatV1.15B25,2013-08-12 06:41:00,
2013-08-11 23:46:00,62.6,57.4,30.06,West,271,1.0,3.0,83,0.00,,,0.00,WeatherCatV1.15B25,2013-08-12 06:46:00,
2013-08-11 23:51:00,62.1,56.9,30.07,West,276,1.0,3.0,83,0.00,,,0.00,WeatherCatV1.15B25,2013-08-12 06:51:00,
2013-08-11 23:56:00,61.8,56.9,30.07,WNW,284,2.0,3.0,84,0.00,,,0.00,WeatherCatV1.15B25,2013-08-12 06:56:00,